Weather History for Llano, TX

Change the Weather History Date:

Monday, July 29, 2013

  Actual Average (KBMQ) Record (KBMQ)
Temperature  
Mean Temperature 89 °F -  
Max Temperature 100 °F 93 °F 100 °F (2012)
Min Temperature 78 °F 71 °F 71 °F (2003)
Cooling Degree Days 24    
Growing Degree Days 39 (Base 50)    
Moisture  
Dew Point 66 °F    
Average Humidity 53    
Maximum Humidity 83    
Minimum Humidity 24    
Precipitation  
Precipitation 0.00 in - - ()
Sea Level Pressure  
Sea Level Pressure 30.01 in    
Wind  
Wind Speed 6 mph (South)    
Max Wind Speed 16 mph    
Max Gust Speed 22 mph    
Visibility 10 miles    
Events      
Averages and records for this station are not official NWS values.
T = Trace of Precipitation, MM = Missing Value Source: NWS Daily Summary

Daily Weather History Graph

Daily Weather History Graph

Search for Another Location

Airport:

Trip Planner

Search our weather history database for the weather conditions in past years. The results will help you decide how hot, cold, wet, or windy it might be!

Date:

Astronomy

Jul. 29, 2013 Rise Set
Actual Time 6:50 AM CDT 8:31 PM CDT
Civil Twilight 6:24 AM CDT 8:57 PM CDT
Nautical Twilight 5:52 AM CDT 9:29 PM CDT
Astronomical Twilight 5:19 AM CDT 10:02 PM CDT
Moon 12:27 AM CDT 1:58 PM CDT
Length of Visible Light 14h 33m
Length of Day
13h 40m
Waning Gibbous, 50% of the Moon is Illuminated
Jul 29
Waning Gibbous
Jul 29
Last Quarter
Aug 6
New
Aug 14
First Quarter
Aug 20
Full

Hourly Weather History & Observations

Time (CDT) Temp. Heat Index Dew Point Humidity Pressure Visibility Wind Dir Wind Speed Gust Speed Precip Events Conditions
12:15 AM 84.2 °F 88.4 °F 69.8 °F 62% 29.97 in 10.0 mi SSE 8.1 mph - N/A   Clear
12:35 AM 82.4 °F 86.3 °F 69.8 °F 66% 29.97 in 10.0 mi Calm Calm - N/A   Clear
12:55 AM 82.4 °F 86.3 °F 69.8 °F 66% 29.98 in 10.0 mi SE 3.5 mph - N/A   Clear
1:15 AM 82.4 °F 87.2 °F 71.6 °F 70% 29.98 in 10.0 mi Calm Calm - N/A   Clear
1:35 AM 80.6 °F 84.6 °F 71.6 °F 74% 29.97 in 10.0 mi SE 3.5 mph - N/A   Clear
1:55 AM 80.6 °F 84.6 °F 71.6 °F 74% 29.98 in 10.0 mi SE 5.8 mph - N/A   Clear
2:15 AM 80.6 °F 84.6 °F 71.6 °F 74% 29.98 in 10.0 mi Calm Calm - N/A   Clear
2:55 AM 80.6 °F 84.6 °F 71.6 °F 74% 29.99 in 10.0 mi Calm Calm - N/A   Clear
3:15 AM 80.6 °F 85.4 °F 73.4 °F 79% 29.99 in 10.0 mi Calm Calm - N/A   Clear
3:35 AM 80.6 °F 85.4 °F 73.4 °F 79% 29.99 in 10.0 mi Calm Calm - N/A   Scattered Clouds
3:55 AM 78.8 °F - 73.4 °F 83% 29.99 in 10.0 mi Calm Calm - N/A   Mostly Cloudy
4:15 AM 80.6 °F 85.4 °F 73.4 °F 79% 30.00 in 9.0 mi Calm Calm - N/A   Overcast
4:35 AM 80.6 °F 84.6 °F 71.6 °F 74% 30.00 in 10.0 mi Calm Calm - N/A   Overcast
4:55 AM 80.6 °F 84.6 °F 71.6 °F 74% 30.00 in 10.0 mi Calm Calm - N/A   Overcast
5:15 AM 80.6 °F 84.6 °F 71.6 °F 74% 30.00 in 10.0 mi SE 4.6 mph - N/A   Overcast
5:35 AM 80.6 °F 85.4 °F 73.4 °F 79% 30.00 in 9.0 mi Calm Calm - N/A   Overcast
5:55 AM 78.8 °F - 73.4 °F 83% 30.00 in 9.0 mi Calm Calm - N/A   Mostly Cloudy
6:15 AM 78.8 °F - 73.4 °F 83% 30.00 in 9.0 mi Calm Calm - N/A   Mostly Cloudy
6:35 AM 78.8 °F - 71.6 °F 78% 30.01 in 10.0 mi SSE 4.6 mph - N/A   Scattered Clouds
6:55 AM 78.8 °F - 71.6 °F 78% 30.01 in 7.0 mi Calm Calm - N/A   Partly Cloudy
7:15 AM 78.8 °F - 71.6 °F 78% 30.02 in 8.0 mi Calm Calm - N/A   Mostly Cloudy
7:35 AM 78.8 °F - 71.6 °F 78% 30.03 in 8.0 mi Calm Calm - N/A   Mostly Cloudy
7:55 AM 78.8 °F - 71.6 °F 78% 30.04 in 8.0 mi Calm Calm - N/A   Mostly Cloudy
8:15 AM 80.6 °F 84.6 °F 71.6 °F 74% 30.04 in 9.0 mi SSE 4.6 mph - N/A   Mostly Cloudy
8:35 AM 80.6 °F 84.6 °F 71.6 °F 74% 30.04 in 8.0 mi South 8.1 mph - N/A   Overcast
8:55 AM 80.6 °F 84.6 °F 71.6 °F 74% 30.04 in 9.0 mi South 9.2 mph - N/A   Overcast
9:15 AM 82.4 °F 87.2 °F 71.6 °F 70% 30.05 in 10.0 mi South 9.2 mph - N/A   Mostly Cloudy
9:35 AM 82.4 °F 87.2 °F 71.6 °F 70% 30.05 in 10.0 mi South 6.9 mph 16.1 mph N/A   Mostly Cloudy
9:55 AM 82.4 °F 87.2 °F 71.6 °F 70% 30.05 in 9.0 mi South 12.7 mph - N/A   Partly Cloudy
10:15 AM 84.2 °F 89.6 °F 71.6 °F 66% 30.05 in 9.0 mi South 9.2 mph 16.1 mph N/A   Partly Cloudy
10:35 AM 86.0 °F 91.8 °F 71.6 °F 62% 30.05 in 10.0 mi South 11.5 mph 16.1 mph N/A   Partly Cloudy
10:55 AM 87.8 °F 93.8 °F 71.6 °F 58% 30.05 in 9.0 mi SSW 11.5 mph - N/A   Clear
11:15 AM 87.8 °F 93.8 °F 71.6 °F 58% 30.04 in 9.0 mi South 11.5 mph - N/A   Clear
11:35 AM 89.6 °F 96.2 °F 71.6 °F 55% 30.05 in 10.0 mi South 9.2 mph - N/A   Clear
11:55 AM 91.4 °F 98.4 °F 71.6 °F 52% 30.05 in 10.0 mi South 10.4 mph - N/A   Clear
12:15 PM 91.4 °F 96.8 °F 69.8 °F 49% 30.04 in 10.0 mi SSW 8.1 mph 17.3 mph N/A   Clear
12:35 PM 91.4 °F 95.4 °F 68.0 °F 46% 30.04 in 10.0 mi SSW 10.4 mph 18.4 mph N/A   Partly Cloudy
12:55 PM 93.2 °F 96.2 °F 66.2 °F 41% 30.03 in 10.0 mi SSW 13.8 mph - N/A   Partly Cloudy
1:15 PM 93.2 °F 94.9 °F 64.4 °F 38% 30.03 in 10.0 mi South 11.5 mph 17.3 mph N/A   Partly Cloudy
1:35 PM 96.8 °F 99.0 °F 64.4 °F 34% 30.02 in 10.0 mi South 10.4 mph - N/A   Clear
1:55 PM 96.8 °F 98.0 °F 62.6 °F 32% 30.02 in 9.0 mi South 10.4 mph 19.6 mph N/A   Clear
2:15 PM 96.8 °F 97.1 °F 60.8 °F 30% 30.01 in 10.0 mi SSE 15.0 mph 20.7 mph N/A   Clear
2:35 PM 96.8 °F 97.1 °F 60.8 °F 30% 30.01 in 10.0 mi South 16.1 mph 19.6 mph N/A   Clear
2:55 PM 98.6 °F 99.4 °F 60.8 °F 29% 30.00 in 10.0 mi South 10.4 mph 20.7 mph N/A   Clear
3:15 PM 98.6 °F 99.4 °F 60.8 °F 29% 30.00 in 10.0 mi South 9.2 mph 19.6 mph N/A   Clear
3:35 PM 98.6 °F 98.5 °F 59.0 °F 27% 29.99 in 10.0 mi SSW 11.5 mph - N/A   Clear
3:55 PM 98.6 °F 97.6 °F 57.2 °F 25% 29.99 in 10.0 mi SSE 12.7 mph 20.7 mph N/A   Clear
4:15 PM 98.6 °F 97.6 °F 57.2 °F 25% 29.98 in 10.0 mi South 11.5 mph 19.6 mph N/A   Clear
4:35 PM 98.6 °F 97.6 °F 57.2 °F 25% 29.98 in 10.0 mi South 10.4 mph - N/A   Clear
4:55 PM 100.4 °F 99.7 °F 57.2 °F 24% 29.97 in 10.0 mi SSE 11.5 mph 21.9 mph N/A   Clear
5:15 PM 98.6 °F 97.6 °F 57.2 °F 25% 29.97 in 10.0 mi South 10.4 mph 18.4 mph N/A   Clear
5:35 PM 98.6 °F 97.2 °F 55.4 °F 24% 29.97 in 10.0 mi South 10.4 mph 18.4 mph N/A   Clear
5:55 PM 98.6 °F 97.2 °F 55.4 °F 24% 29.97 in 10.0 mi SSE 15.0 mph 21.9 mph N/A   Clear
6:15 PM 98.6 °F 97.6 °F 57.2 °F 25% 29.97 in 10.0 mi South 12.7 mph 17.3 mph N/A   Clear
6:35 PM 98.6 °F 97.2 °F 55.4 °F 24% 29.97 in 10.0 mi South 13.8 mph 18.4 mph N/A   Clear
6:55 PM 96.8 °F 95.8 °F 57.2 °F 27% 29.97 in 10.0 mi SSE 11.5 mph 18.4 mph N/A   Clear
7:15 PM 96.8 °F 95.8 °F 57.2 °F 27% 29.97 in 10.0 mi South 8.1 mph - N/A   Clear
7:35 PM 95.0 °F 93.7 °F 57.2 °F 28% 29.97 in 7.0 mi South 11.5 mph 18.4 mph N/A   Clear
7:55 PM 93.2 °F 91.9 °F 57.2 °F 30% 29.98 in 10.0 mi South 8.1 mph - N/A   Clear
8:15 PM 93.2 °F 93.3 °F 60.8 °F 34% 29.99 in 10.0 mi SSE 8.1 mph - N/A   Clear
8:35 PM 91.4 °F 91.4 °F 60.8 °F 36% 30.00 in 10.0 mi SSE 9.2 mph - N/A   Clear
8:55 PM 91.4 °F 92.1 °F 62.6 °F 38% 30.00 in 10.0 mi SSE 8.1 mph - N/A   Clear
9:15 PM 89.6 °F 91.1 °F 64.4 °F 43% 30.01 in 10.0 mi SSE 9.2 mph - N/A   Clear
9:35 PM 89.6 °F 91.1 °F 64.4 °F 43% 30.02 in 10.0 mi SSE 9.2 mph - N/A   Clear
9:55 PM 87.8 °F 89.4 °F 64.4 °F 46% 30.03 in 10.0 mi SSE 10.4 mph - N/A   Clear
10:15 PM 87.8 °F 89.4 °F 64.4 °F 46% 30.04 in 10.0 mi South 8.1 mph - N/A   Clear
10:35 PM 87.8 °F 88.5 °F 62.6 °F 43% 30.03 in 10.0 mi SSE 10.4 mph 17.3 mph N/A   Clear
10:55 PM 86.0 °F 87.3 °F 64.4 °F 48% 30.03 in 10.0 mi SSE 12.7 mph 19.6 mph N/A   Clear
11:15 PM 86.0 °F 87.3 °F 64.4 °F 48% 30.04 in 10.0 mi SSE 6.9 mph - N/A   Clear
11:35 PM 84.2 °F 86.6 °F 66.2 °F 55% 30.04 in 10.0 mi SSE 8.1 mph - N/A   Clear
11:55 PM 84.2 °F 87.3 °F 68.0 °F 58% 30.05 in 10.0 mi SSE 6.9 mph - N/A   Clear